Voltar ao catálogo

STARLINK-35467

AtivoComunicaçõesVLEO
NORAD 66343·PAYLOAD·🇺🇸 United States

Lançado Nov 6, 2025 de Cape Canaveral Space Force Station

Loading…

Próximas Passagens (próximas 24 horas)

TLE

AtualizadoSource: CelesTrak SupGP

Época: Sep 15, 2026, 02:38 UTC

1 66343C 25253AA  26258.11020833 -.00039699  00000+0 -14380-2 0  2583
2 66343  42.9995 223.0017 0001170 267.9997   0.2001 15.27596665    11

Acompanhe STARLINK-35467 em tempo real com AllMySat

Download on the App Store